Find Starlink 31966

NORAD ID: 59944 Int'l Des: 2024-106 Owner: SPXS Country: US Constellation: starlink operational
LEOCIRCULAR

リアルタイム位置

3D地球を読み込み中...

Starlink 31966について

説明を読み込み中...

次回通過

Passes for default location (London). Set your location on the main map for personalized predictions.

高度履歴

Loading altitude history...

軌道要素

1 59944U 24106Y 26106.30383237 .00000535 00000-0 28964-4 0 9994
2 59944 43.0025 120.2426 0001379 261.9661 98.1034 15.27578373106320
Epoch: Apr 16, 2026 • Age: 13 hours

現在のステータス

高度 483.6 km
速度 7.63 km/s
衛星直下点 -4.98°S, 30.22°W
打ち上げ日 Jun 1, 2024
運用期間 1.8 years
タイプ internet

技術仕様

分類 Payload
質量 730.00 kg
乾燥質量 700.00 kg
総質量 730.00 kg
長さ 0.30 m
直径 4.10 m
スパン 29.00 m
形状 Box + pan
製造者 SPXS
バスタイプ Starlink V2M
フェーズステータス In Orbit
所有者/国 SPXS/US

Most Searched